This is the latest recevied weather packets stored in our database for station/object N3OZD-10. If no packets are shown the sender has not sent any weather packets the latest 10 day(s).
| Time | Temp. | Humidity | Pressure | Rain* | Wind** | Luminosity | Snow |
|---|---|---|---|---|---|---|---|
| 1778085151 | 15.56° C | 96% | 1008.4 hPa | 0.25 mm | - | - | - |
| 1778084842 | 16.11° C | 96% | 1008.5 hPa | 0.25 mm | - | - | - |
| 1778084542 | 16.11° C | 96% | 1008.7 hPa | 0.25 mm | - | - | - |
| 1778084242 | 16.11° C | 97% | 1008.6 hPa | 0.25 mm | - | - | - |
| 1778083942 | 16.11° C | 96% | 1008.6 hPa | 0.25 mm | - | - | - |
| 1778083643 | 16.11° C | 96% | 1008.7 hPa | 0.76 mm | - | - | - |
| 1778083343 | 16.11° C | 96% | 1008.7 hPa | 0.76 mm | - | - | - |
| 1778083042 | 16.11° C | 96% | 1008.6 hPa | 1.02 mm | - | - | - |
| 1778082744 | 16.11° C | 96% | 1008.8 hPa | 1.27 mm | - | - | - |
| 1778082444 | 16.11° C | 96% | 1008.7 hPa | 1.27 mm | - | - | - |
| 1778082142 | 16.11° C | 96% | 1008.5 hPa | 1.52 mm | - | - | - |
| 1778081842 | 16.11° C | 96% | 1008.8 hPa | 1.52 mm | - | - | - |
| 1778081548 | 16.11° C | 96% | 1008.8 hPa | 1.52 mm | - | - | - |
| 1778081242 | 16.11° C | 96% | 1009 hPa | 1.52 mm | - | - | - |
| 1778080942 | 16.11° C | 96% | 1009.2 hPa | 2.03 mm | - | - | - |
| 1778080642 | 16.11° C | 95% | 1009.3 hPa | 2.03 mm | - | - | - |
| 1778080346 | 16.11° C | 95% | 1009.4 hPa | 1.78 mm | - | - | - |
| 1778080042 | 16.11° C | 95% | 1009.4 hPa | 1.78 mm | - | - | - |
| 1778079751 | 16.11° C | 95% | 1009.4 hPa | 1.78 mm | - | - | - |
| 1778079442 | 16.11° C | 95% | 1009.4 hPa | 1.78 mm | - | - | - |
| 1778079142 | 16.11° C | 95% | 1009.5 hPa | 2.03 mm | - | - | - |
| 1778078845 | 16.11° C | 95% | 1009.5 hPa | 2.03 mm | - | - | - |
| 1778078542 | 16.11° C | 95% | 1009.4 hPa | 2.03 mm | - | - | - |
| 1778078243 | 16.11° C | 95% | 1009.3 hPa | 2.29 mm | - | - | - |
| 1778077945 | 16.11° C | 94% | 1009.1 hPa | 2.29 mm | - | - | - |
* Rain latest hour (hover to see other rain measurements)
** Current wind speed in m/s (hover to see current wind gust speed)